Search for airport 
image banner adimage banner ad
image banner ad

DFOB - Banfora

Located in , Burkina Faso

ICAO - DFOB, IATA - BNR

Data provided by Airmate  

General information

Coordinates: N10°41'0" W4°43'0"
Elevation is 984 feet MSL.
 
View others Airports in Comoe

Operational data

Open for public use
Current time UTC:
Current local time:
Weather at : DFOO - Bobo-Dioulasso ( 69 km )
METAR: DFOO 230400Z 00000KT CAVOK 23/20 Q1013
TAF: TAF DFOO 222300Z 2300/2324 20008KT 9999 FEW026 TEMPO 2316/2324 TS FEW026 FEW033CB
View NOTAMs / SUP AIP / TFR affecting this airport [VIEW]
Communications frequencies: [VIEW]

Runways:

Airport contact information

Address: Burkina Faso

Satellite view of DFOB